COSMOS 2433 (720)

Last updated on June 24, 2019, 3:41 a.m. UTC

1 32275U 07052A   19174.15812156 -.00000065  00000-0  10000-3 0  9990
2 32275  65.8518  40.9411 0001520 286.0687 175.0518  2.13104327 90737
UTC
Height (km)
Latitude
Longitude
Inclination
Orbital Period
UTC large
Height (km)
Speed (km/s)
/
Latitude / Longitude
Inclination (degrees)
Orbital Period (minutes)
Azimuth
Elevation
Range (km)
Doppler Factor
iOS Compass Heading
iOS Angle

Next 30 passes for location: Hong Kong

Rise time Rise Azimuth (degrees) Set time Set Azimuth (degrees) Duration Max altitude (degrees)

No matching passes for this satellites